Oakey (Army/Civ), Australia

8:57 AM AEST on February 20, 2017 (GMT +1000)
Oakey (Military)

Weather History for YBOK - June, 2014

Change the Weather History Date:

Saturday, June 14, 2014

  Actual Average Record
Temperature  
Mean Temperature 58 °F -  
Max Temperature 62 °F - - ()
Min Temperature 53 °F - - ()
Degree Days  
Heating Degree Days 8    
Growing Degree Days 8 (Base 50)    
Moisture  
Dew Point 55 °F    
Average Humidity 89    
Maximum Humidity 100    
Minimum Humidity 80    
Precipitation  
Precipitation 0.08 in - - ()
Sea Level Pressure  
Sea Level Pressure 29.99 in    
Wind  
Wind Speed 7 mph ()    
Max Wind Speed 15 mph    
Max Gust Speed -    
Visibility 6.0 miles    
Events      
T = Trace of Precipitation, MM = Missing Value Source: Averaged Metar Reports

Daily Weather History Graph

Daily Weather History Graph

Search for Another Location

Airport or City:

Trip Planner

Search our weather history database for the weather conditions in past years. The results will help you decide how hot, cold, wet, or windy it might be!

Date:

Astronomy

Jun. 14, 2014 Rise Set
Actual Time 6:40 AM AEST 5:05 PM AEST
Civil Twilight 6:14 AM AEST 5:31 PM AEST
Nautical Twilight 5:45 AM AEST 6:00 PM AEST
Astronomical Twilight 5:17 AM AEST 6:29 PM AEST
Moon 6:24 PM AEST (6/14) 7:15 AM AEST (6/14)
Length of Visible Light 11h 16m
Length of Day
10h 25m
Full, 99% of the Moon is Illuminated
Jun 14
Full
Jun 20
Last Quarter
Jun 27
New
Jul 5
First Quarter
Jul 12
Full

Hourly Weather History & Observations

Time (AEST) Temp. Dew Point Humidity Pressure Visibility Wind Dir Wind Speed Gust Speed Precip Events Conditions
12:00 AM 57 °F 53 °F 84% 30.02 in - ENE 10.4 mph - -  
12:00 AM 57.2 °F 53.6 °F 88% 30.01 in 6.2 mi ENE 10.4 mph - N/A   Unknown
1:00 AM 57 °F 54 °F 86% 30.01 in - ENE 6.9 mph - -  
1:00 AM 57.2 °F 53.6 °F 88% 30.01 in 6.2 mi ENE 6.9 mph - N/A   Overcast
2:00 AM 57.2 °F 53.6 °F 88% 29.98 in 6.2 mi ENE 10.4 mph - N/A   Overcast
3:00 AM 59 °F 54 °F 80% 29.98 in - ENE 5.8 mph - -   Overcast
3:00 AM 59.0 °F 55.4 °F 88% 29.98 in 6.2 mi ENE 5.8 mph - N/A   Overcast
4:00 AM 59 °F 54 °F 80% 29.97 in - ENE 10.4 mph - -  
4:00 AM 59.0 °F 55.4 °F 88% 29.95 in 6.2 mi ENE 10.4 mph - N/A   Overcast
5:00 AM 59.0 °F 53.6 °F 82% 29.95 in 6.2 mi NE 6.9 mph - N/A   Scattered Clouds
6:00 AM 58 °F 53 °F 80% 29.99 in - ENE 4.6 mph - -   Overcast
6:00 AM 59.0 °F 53.6 °F 82% 29.98 in 6.2 mi ENE 4.6 mph - N/A   Overcast
7:00 AM 58 °F 54 °F 83% 30.03 in - NW 5.8 mph - -  
7:00 AM 57.2 °F 53.6 °F 88% 30.01 in 6.2 mi NW 5.8 mph - N/A   Overcast
8:00 AM 57.2 °F 55.4 °F 94% 30.04 in 3.1 mi WNW 4.6 mph - N/A   Overcast
9:00 AM 58 °F 55 °F 88% 30.04 in 5 mi Calm Calm - -   Overcast
9:00 AM 57.2 °F 55.4 °F 94% 30.04 in 5.0 mi Calm Calm - N/A   Overcast
10:00 AM 58 °F 56 °F 92% 30.04 in - North 8.1 mph - -  
10:00 AM 59.0 °F 57.2 °F 94% 30.04 in - North 8.1 mph - N/A   Overcast
11:00 AM 60.8 °F 57.2 °F 88% 30.01 in 6.2 mi North 12.7 mph - N/A   Overcast
12:00 PM 61 °F 58 °F 85% 29.97 in - NNE 10.4 mph - -   Overcast
12:00 PM 60.8 °F 57.2 °F 88% 29.95 in 6.2 mi NNE 10.4 mph - N/A   Overcast
1:00 PM 62 °F 58 °F 82% 29.93 in - North 12.7 mph - -  
1:00 PM 62.6 °F 57.2 °F 82% 29.92 in 6.2 mi North 12.7 mph - N/A   Overcast
2:00 PM 60.8 °F 57.2 °F 88% 29.95 in 6.2 mi NW 15.0 mph - N/A   Overcast
3:00 PM 56 °F 54 °F 90% 29.96 in - West 13.8 mph - -   Overcast
3:00 PM 57.2 °F 53.6 °F 88% 29.95 in 6.2 mi West 13.8 mph - N/A   Overcast
4:00 PM 56 °F 54 °F 90% 29.97 in - West 11.5 mph - -  
4:00 PM 55.4 °F 53.6 °F 94% 29.95 in 6.2 mi West 11.5 mph - N/A   Overcast
5:00 PM 55.4 °F 53.6 °F 94% 29.95 in 6.2 mi WSW 10.4 mph - N/A   Overcast
6:00 PM 56 °F 53 °F 87% 29.99 in - WNW 5.8 mph - -   Overcast
6:00 PM 55.4 °F 53.6 °F 94% 29.98 in 6.2 mi WNW 5.8 mph - N/A   Overcast
7:00 PM 55 °F 53 °F 89% 30.01 in - WNW 2.3 mph - -  
7:00 PM 55.4 °F 53.6 °F 94% 30.01 in 6.2 mi WNW 2.3 mph - N/A   Overcast
8:00 PM 53.6 °F 53.6 °F 100% 30.01 in 6.2 mi NW 5.8 mph - N/A   Overcast
9:00 PM 55 °F 54 °F 95% 30.01 in - WSW 5.8 mph - -   Overcast
9:00 PM 55.4 °F 53.6 °F 94% 30.01 in 6.2 mi WSW 5.8 mph - N/A   Overcast
10:00 PM 55 °F 54 °F 94% 30.03 in - WNW 8.1 mph - -  
10:00 PM 55.4 °F 53.6 °F 94% 30.01 in 6.2 mi WNW 8.1 mph - N/A   Mostly Cloudy
11:00 PM 53.6 °F 53.6 °F 100% 30.01 in 6.2 mi West 9.2 mph - N/A   Overcast